Regional Weather Roundup
Issued by NWS Cleveland, OH

Home | Current Version | Previous Version | Text Only | Print | Product List | Glossary Off
Versions: 1 2 3 4 5 6 7 8 9 10 11 12 13 14 15 16 17 18 19 20 21 22 23 24 25 26 27 28 29 30 31 32 33 34 35 36 37 38 39 40 41 42 43 44 45 46 47 48 49 50

000
ASUS41 KCLE 261912
RWRCLE
OHIO REGIONAL WEATHER ROUNDUP
NATIONAL WEATHER SERVICE WILMINGTON, OH
200 PM EST SUN FEB 26 2017

NOTE: "FAIR" INDICATES FEW OR NO CLOUDS BELOW 12,000 FEET WITH NO
SIGNIFICANT WEATHER AND/OR OBSTRUCTIONS TO VISIBILITY.

OHZ001>008-015>018-024>027-034-035-043-044-262000-
   NORTHWEST OHIO

CITY           SKY/WX    TMP DP  RH WIND       PRES   REMARKS
DEFIANCE       FAIR      38  20  48 S21       30.08F
FINDLAY        FAIR      42  19  39 SW17G26   30.09F
TOLEDO EXPRESS FAIR      39  19  44 S16G24    30.07F
TOLEDO EXEC    FAIR      40  19  43 SW18G26   30.09F
LIMA           FAIR      39  21  48 SW17G24   30.09F
$$

OHZ009>014-019>023-028>033-038-089-262000-
   NORTHEAST OHIO

CITY           SKY/WX    TMP DP  RH WIND       PRES   REMARKS
CLE-HOPKINS    FAIR      39  18  42 SW15      30.13F
CLE-LAKEFRONT  FAIR      39  18  42 SW14G22   30.11F
CUY CO. ARPT   SUNNY     37  21  52 SW9G18    30.11F
LORAIN-ELYRIA  FAIR      37  20  50 SW18      30.11F
ASHTABULA      FAIR      33  21  61 W5G18     30.12S WCI  29
AKRON-CANTON   FAIR      37  18  46 SW13G22   30.12F
WOOSTER        FAIR      36  21  54 SW14      30.12F
MANSFIELD      FAIR      37  20  50 SW10G23   30.11F
YOUNGSTOWN     FAIR      35  18  49 SW15G22   30.12R WCI  25
$$

OHZ042-051>053-060>062-070>072-077>081-262000-
  SOUTHWEST OHIO

CITY           SKY/WX    TMP DP  RH WIND       PRES   REMARKS
CINC-COVINGTON FAIR      44  14  29 SW8       30.16F
CINC-LUNKEN    FAIR      45  17  32 SW7       30.19F
HAMILTON       FAIR      45  16  31 S8        30.18F
DAYTON         PTSUNNY   41  17  38 SW12      30.14F
WRIGHT-PAT AFB FAIR      42  12  30 SW17      30.15F
DAYTON GENERAL FAIR      40  15  36 SW13G20   30.14F
WILMINGTON     FAIR      41  18  39 S15       30.15F
$$

OHZ036-037-039>041-045>050-054>059-063>069-073>076-082>088-262000-
  CENTRAL AND SOUTHEAST OHIO

CITY           SKY/WX    TMP DP  RH WIND       PRES   REMARKS
COLUMBUS       FAIR      40  20  44 SW13G20   30.16F
OSU AIRPORT    FAIR      40  21  46 S9G20     30.15F
BOLTON FIELD   SUNNY     39  19  45 SW13      30.17F
RICKENBACK AFB FAIR      39  19  45 SW12G21   30.17F
NEWARK         FAIR      39  19  44 SW12G18   30.16F
MARION         FAIR      38  19  46 SW13      30.13F
LANCASTER      FAIR      41  21  44 S13       30.18F
ZANESVILLE     FAIR      39  16  39 VRB5      30.17F
NEW PHILLY     FAIR      37  20  50 W10       30.16F
$$



USA.gov is the U.S. government's official web portal to all federal, state and local government web resources and services.